STARLINK-5235 (54185 NORAD) Tracking and Keplerian Element Data

This shows tracking and keplerian element data for the satellite.

Feedback or suggestion? Click here.




ElementValue
Catalog54185
NameSTARLINK-5235
Epoch Orbit130
Epoch Day324.91667824
Epoch Year2022
RAAN25.7558
Inclination53.2184
Eccentricity0.0003242
Argument of Perigee11.7855
Mean Anonmoly284.9437
Mean Motion15.73164052
Decay Rate0.00034598
L11 54185U 22141AE 22324.91667824 .00034598 00000+0 25026-3 0 9995
L22 54185 53.2184 25.7558 0003242 11.7855 284.9437 15.73164052 1303



Live tracking and technical data element details for STARLINK-5235 (NORAD 54185). STARLINK-5235 can be tracked NOW for your location showing map with azimuth and elevation plus other details from your city location.







IsCatalogInMostPopularTable: catalog: 54185, numindb: 4
Update: records affected: 1



GetName: 54185 STARLINK-5235

Hit Count: updated at: Mon, 28 Nov 2022 21:58:01 GMT